Location: Azul
(36.7830°S, 59.8500°W)
Time: 23:33:22
(UTC-03:00)

CUBEBUG 2 - Pass Details

Date: 31 October 2021
Orbit: 584 x 697 km, 97.7° (Epoch: 30 November)

Event Time Altitude Azimuth Distance (km) Brightness Sun altitude
Exits shadow 03:03:27 27° 84° (E) 1,205 ? -29.2°
Maximum altitude 03:04:28 30° 110° (ESE) 1,125 ? -29.1°
Drops below altitude 10° 03:08:20 10° 170° (S) 2,039 ? -28.6°
Sets 03:10:47 0° 180° (S) 2,977 ? -28.3°
